Weather History for Lapeer, MI

Change the Weather History Date:

Sunday, February 17, 2013

  Actual Average (KFNT) Record (KFNT)
Temperature  
Mean Temperature 10 °F 25 °F  
Max Temperature 20 °F 33 °F 54 °F (1911)
Min Temperature 1 °F 17 °F -19 °F (1979)
Degree Days  
Heating Degree Days 54 40  
Month to date heating degree days 702  
Since 1 July heating degree days 4666  
Cooling Degree Days 0 0  
Month to date cooling degree days 0  
Year to date cooling degree days 0  
Moisture  
Dew Point 4 °F    
Average Humidity 74    
Maximum Humidity 90    
Minimum Humidity 48    
Precipitation  
Precipitation 0.00 in 0.05 in 0.75 in (1938)
Month to date precipitation 0.84  
Year to date precipitation 2.47  
Snow  
Snow 0.00 in 0.40 in 2.60 in (1956)
Month to date snowfall 6.8  
Since 1 July snowfall 34.6  
Snow Depth -    
Sea Level Pressure  
Sea Level Pressure 30.12 in    
Wind  
Wind Speed 6 mph (NW)    
Max Wind Speed 13 mph    
Max Gust Speed 21 mph    
Visibility 10 miles    
Events Snow    
T = Trace of Precipitation, MM = Missing Value Source: NWS Daily Summary

Daily Weather History Graph

Daily Weather History Graph

Search for Another Location

Airport:

Trip Planner

Search our weather history database for the weather conditions in past years. The results will help you decide how hot, cold, wet, or windy it might be!

Date:

Astronomy

Feb. 17, 2013 Rise Set
Actual Time 7:27 AM EST 6:07 PM EST
Civil Twilight 6:58 AM EST 6:36 PM EST
Nautical Twilight 6:25 AM EST 7:09 PM EST
Astronomical Twilight 5:52 AM EST 7:42 PM EST
Moon 11:07 AM EST (2/17) 1:13 AM EST (2/17)
Length of Visible Light 11h 37m
Length of Day
10h 39m
Waxing Crescent, 49% of the Moon is Illuminated
Feb 17
Waxing Crescent
Feb 17
First Quarter
Feb 25
Full
Mar 4
Last Quarter
Mar 11
New

Hourly Weather History & Observations

Time (EST) Temp. Windchill Dew Point Humidity Pressure Visibility Wind Dir Wind Speed Gust Speed Precip Events Conditions
12:13 AM 15.1 °F 4.2 °F 12.4 °F 89% 30.02 in 7.0 mi NNW 8.1 mph - N/A Snow Light Snow
12:32 AM 14.2 °F 4.1 °F 11.3 °F 88% 30.03 in 10.0 mi NNW 6.9 mph - N/A Snow Light Snow
12:52 AM 13.8 °F 3.7 °F 11.3 °F 90% 30.03 in 5.0 mi NNW 6.9 mph - N/A   Mostly Cloudy
1:13 AM 14.5 °F 4.6 °F 10.8 °F 85% 30.03 in 10.0 mi NNW 6.9 mph - N/A   Overcast
1:32 AM 14.0 °F 2.9 °F 8.8 °F 80% 30.04 in 10.0 mi NW 8.1 mph - N/A   Overcast
1:52 AM 12.7 °F 2.4 °F 7.5 °F 80% 30.04 in 10.0 mi NW 6.9 mph - N/A   Mostly Cloudy
2:12 AM 11.3 °F 0.7 °F 6.8 °F 82% 30.04 in 10.0 mi NNW 6.9 mph - N/A   Scattered Clouds
2:32 AM 11.1 °F -0.6 °F 6.6 °F 82% 30.05 in 10.0 mi NNW 8.1 mph - N/A   Scattered Clouds
2:53 AM 9.7 °F -1.3 °F 5.7 °F 84% 30.06 in 10.0 mi NW 6.9 mph - N/A   Scattered Clouds
3:12 AM 9.5 °F 3.0 °F 5.4 °F 83% 30.06 in 10.0 mi WNW 3.5 mph - N/A   Overcast
3:32 AM 8.6 °F 0.1 °F 4.6 °F 84% 30.06 in 10.0 mi NW 4.6 mph - N/A   Overcast
3:53 AM 7.9 °F 1.2 °F 3.7 °F 83% 30.06 in 10.0 mi WNW 3.5 mph - N/A   Scattered Clouds
4:12 AM 7.3 °F - 3.0 °F 82% 30.07 in 10.0 mi Calm Calm - N/A   Clear
4:32 AM 6.4 °F -0.5 °F 2.8 °F 85% 30.07 in 10.0 mi WNW 3.5 mph - N/A   Clear
4:53 AM 5.9 °F -1.1 °F 2.5 °F 86% 30.07 in 10.0 mi WNW 3.5 mph - N/A   Clear
5:12 AM 5.5 °F - 1.9 °F 85% 30.07 in 10.0 mi Calm Calm - N/A   Clear
5:32 AM 3.7 °F - 0.7 °F 87% 30.08 in 10.0 mi Calm Calm - N/A   Clear
5:53 AM 3.0 °F - 0.3 °F 88% 30.08 in 10.0 mi Calm Calm - N/A   Clear
6:12 AM 2.7 °F -6.8 °F -0.2 °F 88% 30.09 in 10.0 mi West 4.6 mph - N/A   Clear
6:32 AM 3.6 °F -3.8 °F 0.5 °F 87% 30.10 in 10.0 mi WNW 3.5 mph - N/A   Clear
6:53 AM 3.9 °F -5.3 °F 0.5 °F 86% 30.10 in 10.0 mi West 4.6 mph - N/A   Clear
7:12 AM 3.9 °F -6.9 °F 0.5 °F 86% 30.10 in 10.0 mi WNW 5.8 mph - N/A   Clear
7:32 AM 3.9 °F -5.3 °F -0.0 °F 84% 30.11 in 10.0 mi WNW 4.6 mph - N/A   Clear
7:53 AM 4.1 °F -6.7 °F 0.3 °F 84% 30.11 in 10.0 mi WNW 5.8 mph - N/A   Clear
8:12 AM 4.8 °F -7.1 °F 0.7 °F 83% 30.12 in 10.0 mi WNW 6.9 mph - N/A   Clear
8:33 AM 6.1 °F -2.8 °F 1.8 °F 82% 30.12 in 10.0 mi WNW 4.6 mph - N/A   Clear
8:53 AM 7.3 °F -5.2 °F 2.3 °F 80% 30.12 in 10.0 mi WNW 8.1 mph - N/A   Clear
9:12 AM 8.4 °F -3.9 °F 2.8 °F 78% 30.12 in 10.0 mi WNW 8.1 mph - N/A   Clear
9:33 AM 9.9 °F -2.2 °F 3.9 °F 77% 30.13 in 10.0 mi WNW 8.1 mph - N/A   Clear
9:53 AM 11.1 °F -0.6 °F 4.5 °F 75% 30.13 in 10.0 mi NW 8.1 mph - N/A   Clear
10:12 AM 12.2 °F 2.9 °F 5.4 °F 74% 30.14 in 10.0 mi NW 5.8 mph - N/A   Clear
10:33 AM 13.8 °F 2.7 °F 5.7 °F 70% 30.15 in 10.0 mi NW 8.1 mph - N/A   Clear
10:53 AM 14.7 °F 4.8 °F 5.7 °F 68% 30.15 in 10.0 mi NW 6.9 mph - N/A   Clear
11:12 AM 15.4 °F 3.8 °F 5.4 °F 64% 30.15 in 10.0 mi NNW 9.2 mph - N/A   Clear
11:33 AM 16.3 °F 5.7 °F 5.5 °F 63% 30.16 in 10.0 mi NW 8.1 mph - N/A   Clear
11:53 AM 17.1 °F 8.7 °F 5.4 °F 60% 30.15 in 10.0 mi North 5.8 mph - N/A   Clear
12:12 PM 17.6 °F 7.3 °F 5.2 °F 58% 30.15 in 10.0 mi North 8.1 mph - N/A   Clear
12:33 PM 17.1 °F 5.8 °F 4.1 °F 57% 30.15 in 10.0 mi NW 9.2 mph - N/A   Scattered Clouds
12:53 PM 18.5 °F 8.4 °F 3.2 °F 51% 30.14 in 10.0 mi NNW 8.1 mph 17.3 mph N/A   Scattered Clouds
1:12 PM 18.9 °F 7.2 °F 4.1 °F 53% 30.14 in 10.0 mi NNW 10.4 mph 16.1 mph N/A   Clear
1:33 PM 19.6 °F 8.9 °F 5.2 °F 54% 30.14 in 10.0 mi NW 9.2 mph - N/A   Scattered Clouds
1:52 PM 19.6 °F 8.9 °F 5.2 °F 54% 30.14 in 10.0 mi NW 9.2 mph - N/A   Mostly Cloudy
2:12 PM 19.6 °F 7.4 °F 4.8 °F 53% 30.14 in 10.0 mi WNW 11.5 mph 17.3 mph N/A   Overcast
2:33 PM 18.7 °F 5.7 °F 3.2 °F 51% 30.14 in 10.0 mi WNW 12.7 mph - N/A   Mostly Cloudy
2:52 PM 19.6 °F 8.1 °F 4.5 °F 52% 30.14 in 10.0 mi NW 10.4 mph 18.4 mph N/A   Scattered Clouds
3:12 PM 18.7 °F 7.0 °F 4.1 °F 53% 30.14 in 10.0 mi NNW 10.4 mph - N/A   Mostly Cloudy
3:33 PM 20.3 °F 11.5 °F 4.5 °F 50% 30.15 in 10.0 mi NW 6.9 mph - N/A   Overcast
3:52 PM 19.9 °F 8.6 °F 2.8 °F 48% 30.15 in 10.0 mi NW 10.4 mph 20.7 mph N/A   Mostly Cloudy
4:12 PM 18.5 °F 10.4 °F 3.0 °F 51% 30.15 in 10.0 mi NW 5.8 mph - N/A   Scattered Clouds
4:33 PM 18.5 °F 9.3 °F 3.4 °F 52% 30.15 in 10.0 mi NW 6.9 mph - N/A   Overcast
4:52 PM 18.5 °F 10.4 °F 3.7 °F 53% 30.15 in 10.0 mi NW 5.8 mph - N/A   Scattered Clouds
5:12 PM 18.0 °F 11.1 °F 3.6 °F 53% 30.15 in 10.0 mi NNW 4.6 mph - N/A   Clear
5:33 PM 17.6 °F 9.3 °F 3.7 °F 55% 30.15 in 10.0 mi NNW 5.8 mph - N/A   Clear
5:52 PM 17.2 °F - 3.9 °F 56% 30.15 in 10.0 mi Calm Calm - N/A   Scattered Clouds
6:12 PM 16.3 °F - 4.1 °F 59% 30.16 in 10.0 mi Calm Calm - N/A   Overcast
6:33 PM 14.0 °F - 4.8 °F 67% 30.16 in 10.0 mi Calm Calm - N/A   Mostly Cloudy
6:52 PM 13.6 °F - 4.5 °F 67% 30.16 in 10.0 mi Calm Calm - N/A   Mostly Cloudy
7:13 PM 10.9 °F - 5.0 °F 77% 30.17 in 10.0 mi Calm Calm - N/A   Scattered Clouds
7:33 PM 10.2 °F - 4.5 °F 78% 30.16 in 10.0 mi Calm Calm - N/A   Clear
7:52 PM 8.6 °F - 4.1 °F 82% 30.16 in 10.0 mi Calm Calm - N/A   Clear
8:13 PM 7.3 °F - 3.6 °F 85% 30.16 in 10.0 mi Calm Calm - N/A   Clear
8:33 PM 5.9 °F - 2.3 °F 85% 30.16 in 10.0 mi Calm Calm - N/A   Clear
8:52 PM 6.1 °F - 2.7 °F 86% 30.17 in 10.0 mi Calm Calm - N/A   Clear
9:13 PM 4.5 °F - 1.8 °F 89% 30.18 in 10.0 mi Calm Calm - N/A   Clear
9:32 PM 4.3 °F - 1.4 °F 88% 30.18 in 10.0 mi Calm Calm - N/A   Clear
9:53 PM 3.4 °F - 0.7 °F 89% 30.18 in 10.0 mi Calm Calm - N/A   Clear
10:13 PM 3.2 °F - 0.3 °F 88% 30.18 in 10.0 mi Calm Calm - N/A   Clear
10:32 PM 3.9 °F - 1.0 °F 88% 30.17 in 10.0 mi Calm Calm - N/A   Clear
10:52 PM 2.1 °F - -0.8 °F 88% 30.18 in 10.0 mi Calm Calm - N/A   Clear
11:13 PM 4.8 °F - 1.4 °F 86% 30.18 in 10.0 mi Calm Calm - N/A   Clear
11:32 PM 1.0 °F -6.7 °F -2.2 °F 86% 30.17 in 10.0 mi SE 3.5 mph - N/A   Clear
11:53 PM 2.3 °F -5.2 °F -0.9 °F 86% 30.17 in 10.0 mi SE 3.5 mph - N/A   Clear